Location: Nebraska Star Party
(42.6000°N, 100.8833°W)
Time: 03:19:10
(UTC-05:00)

Amateur Radio Satellites - All Passes

Search period start: 25 July 2014 02:49
Search period end: 26 July 2014 02:49
Location: Nebraska Star Party, 42.6000°N, 100.8833°W

Satellite Date Start Highest point End Downlink Frequencies (MHz)
Time Altitude Azimuth
ITAMSAT 1 25 Jul 02:57:52 03:01:40 20° 93° (E) 03:05:26 435.822 SSB
JAS-1B 25 Jul 03:02:34 03:09:43 24° 85° (E) 03:16:11 435.800 - 435.900 CW/SSB
OPAL 25 Jul 03:09:51 03:11:42 12° 55° (NE) 03:13:34 ?
AO-Echo 25 Jul 03:10:03 03:14:25 27° 94° (E) 03:18:38 ?
Gurwin Techsat 1B 25 Jul 03:14:41 03:16:35 12° 88° (E) 03:18:29 435.225 FM
AO-27 25 Jul 03:15:20 03:19:53 30° 96° (E) 03:24:23 436.795 MHz FM
Uribyol 2 25 Jul 03:17:52 03:22:31 33° 97° (E) 03:27:07 436.500 FM
Sapphire 25 Jul 03:27:17 03:32:36 58° 304° (NW) 03:37:58 437.095 MHz 1200 baud AX-25 AFSK
Oscar 19 25 Jul 03:57:08 04:02:09 54° 289° (WNW) 04:07:10 437.125 CW, 437.150 USB
PCSat 25 Jul 04:02:01 04:06:48 31° 311° (NW) 04:11:36 145.825 MHz
ISS 25 Jul 04:19:30 04:22:12 22° 346° (NNW) 04:24:54 145.800 FM
Oscar 16 25 Jul 04:25:11 04:29:36 30° 294° (WNW) 04:34:02 437.025 USB, Beacon 2401.1428
TMSAT-1 25 Jul 04:30:30 04:35:35 45° 99° (E) 04:40:37 436.925 FM
ITAMSAT 1 25 Jul 04:36:26 04:41:27 51° 289° (WNW) 04:46:25 435.822 SSB
OPAL 25 Jul 04:44:53 04:49:50 87° 73° (ENE) 04:54:49 ?
AO-Echo 25 Jul 04:48:33 04:53:15 36° 292° (WNW) 04:57:47 ?
JAS-1B 25 Jul 04:51:39 05:01:23 84° 287° (WNW) 05:09:49 435.800 - 435.900 CW/SSB
Gurwin Techsat 1B 25 Jul 04:51:53 04:57:14 86° 285° (WNW) 05:02:32 435.225 FM
AO-27 25 Jul 04:54:44 04:59:24 35° 293° (WNW) 05:04:03 436.795 MHz FM
Uribyol 2 25 Jul 04:57:24 05:01:55 32° 294° (WNW) 05:06:26 436.500 FM
Uosat F 25 Jul 05:03:31 05:07:14 20° 93° (E) 05:10:55 435.120 FM
Sapphire 25 Jul 05:14:57 05:17:14 13° 325° (NW) 05:19:32 437.095 MHz 1200 baud AX-25 AFSK
Oscar 10/S400 25 Jul 05:39:30 06:54:02 45° 226° (SW) 12:30:49 145.825 - 145.975 CW/USB, Beacon 145.810 USB
AO-7 25 Jul 05:52:22 06:00:30 54° 102° (ESE) 06:08:32 29.400 - 29.500 MHz
ISS 25 Jul 05:57:22 05:59:47 18° 6° (N) 06:02:12 145.800 FM
TMSAT-1 25 Jul 06:11:00 06:15:14 25° 296° (WNW) 06:19:27 436.925 FM
Lituanica SAT-1 25 Jul 06:13:54 06:15:51 33° 28° (NNE) 06:17:48 437.275 MHz beacon
OPAL 25 Jul 06:28:28 06:29:22 10° 270° (W) 06:30:16 ?
Gurwin Techsat 1B 25 Jul 06:34:11 06:36:23 13° 303° (WNW) 06:38:34 435.225 FM
Uosat F 25 Jul 06:41:26 06:46:16 48° 290° (WNW) 06:51:03 435.120 FM
JAS-1B 25 Jul 06:43:23 06:50:21 24° 309° (NW) 06:56:51 435.800 - 435.900 CW/SSB
MaSat-1 25 Jul 06:52:53 06:55:33 14° 42° (NE) 06:58:12 437.345 MHz
STRAND 1 25 Jul 07:01:07 07:05:55 41° 69° (ENE) 07:10:44 ?
Hamsat 25 Jul 07:04:17 07:07:54 26° 95° (E) 07:11:31 145.90 MHz
KITSAT 1 25 Jul 07:10:57 07:17:59 34° 108° (ESE) 07:25:02 435.175 FM
ISS 25 Jul 07:33:58 07:37:10 40° 26° (NNE) 07:40:22 145.800 FM
AO-7 25 Jul 07:45:34 07:53:00 38° 301° (WNW) 08:00:24 29.400 - 29.500 MHz
Lituanica SAT-1 25 Jul 07:47:12 07:48:16 13° 225° (SW) 07:49:20 437.275 MHz beacon
JAS-2 25 Jul 07:57:05 08:03:17 64° 100° (E) 08:08:44 435.800 - 435.900 CW/SSB, 435.910 FM
MaSat-1 25 Jul 08:28:33 08:33:54 70° 62° (ENE) 08:39:02 437.345 MHz
Hamsat 25 Jul 08:40:09 08:43:49 28° 291° (WNW) 08:47:31 145.90 MHz
STRAND 1 25 Jul 08:41:02 08:45:14 25° 266° (W) 08:49:27 ?
SO-67 25 Jul 08:49:48 08:53:16 64° 101° (E) 08:56:43 435.3500 MHz FM
KITSAT 1 25 Jul 09:05:01 09:12:59 59° 308° (NW) 09:21:00 435.175 FM
ISS 25 Jul 09:10:50 09:13:49 30° 223° (SW) 09:16:48 145.800 FM
HO-68 25 Jul 09:18:38 09:22:08 14° 88° (E) 09:25:37 435.675 MHz FM
Saudisat 1A 25 Jul 09:33:18 09:37:37 56° 119° (ESE) 09:41:58 436.775 MHz
JAS-2 25 Jul 09:43:13 09:47:40 21° 302° (WNW) 09:51:48 435.800 - 435.900 CW/SSB, 435.910 FM
MaSat-1 25 Jul 10:07:24 10:10:39 17° 260° (W) 10:13:49 437.345 MHz
Sapphire 25 Jul 10:31:46 10:36:05 23° 45° (NE) 10:40:23 437.095 MHz 1200 baud AX-25 AFSK
UKube-1 25 Jul 10:35:54 10:39:55 35° 98° (E) 10:43:53 145.840 MHz, 145.915 MHz
HO-68 25 Jul 11:03:40 11:10:52 82° 106° (ESE) 11:18:00 435.675 MHz FM
KITSAT 1 25 Jul 11:04:44 11:10:18 20° 333° (NNW) 11:15:53 435.175 FM
PCSat 25 Jul 11:05:13 11:10:22 41° 52° (NE) 11:15:28 145.825 MHz
Saudisat 1A 25 Jul 11:14:11 11:17:32 21° 318° (NW) 11:20:55 436.775 MHz
Oscar 11 25 Jul 11:25:22 11:29:41 64° 101° (E) 11:33:59 145.825 FM, Beacon 2401.500 USB
FUNcube-1 25 Jul 11:35:44 11:39:23 29° 96° (E) 11:43:02 145.950 - 145.970 MHz USB
UKube-1 25 Jul 12:12:32 12:15:56 23° 294° (WNW) 12:19:19 145.840 MHz, 145.915 MHz
Sapphire 25 Jul 12:14:35 12:19:56 63° 244° (WSW) 12:25:16 437.095 MHz 1200 baud AX-25 AFSK
PCSat 25 Jul 12:48:56 12:53:37 30° 251° (WSW) 12:58:16 145.825 MHz
HO-68 25 Jul 12:52:40 12:57:45 22° 305° (NW) 13:02:50 435.675 MHz FM
Oscar 11 25 Jul 13:03:17 13:05:21 13° 298° (WNW) 13:07:25 145.825 FM, Beacon 2401.500 USB
KITSAT 1 25 Jul 13:06:25 13:09:40 13° 4° (N) 13:12:55 435.175 FM
FUNcube-1 25 Jul 13:12:20 13:15:41 24° 292° (WNW) 13:19:03 145.950 - 145.970 MHz USB
SO-50 25 Jul 13:26:16 13:28:46 15° 109° (ESE) 13:31:18 436.795 FM
Oscar 19 25 Jul 13:36:19 13:40:42 30° 66° (ENE) 13:45:07 437.125 CW, 437.150 USB
JAS-1B 25 Jul 13:47:13 13:54:02 25° 52° (NE) 14:01:17 435.800 - 435.900 CW/SSB
Oscar 16 25 Jul 14:03:16 14:08:15 55° 72° (ENE) 14:13:15 437.025 USB, Beacon 2401.1428
ITAMSAT 1 25 Jul 14:16:19 14:20:58 34° 67° (ENE) 14:25:38 435.822 SSB
TMSAT-1 25 Jul 14:16:55 14:18:12 11° 56° (NE) 14:19:29 436.925 FM
RS-15 25 Jul 14:21:10 14:31:23 44° 110° (ESE) 14:41:23 29.354 - 29.394 USB, Beacon 29.352 USB
AO-Echo 25 Jul 14:23:05 14:27:58 40° 69° (ENE) 14:32:55 ?
AO-27 25 Jul 14:34:01 14:39:02 50° 70° (ENE) 14:44:04 436.795 MHz FM
Gurwin Techsat 1B 25 Jul 14:35:33 14:39:33 22° 63° (ENE) 14:43:33 435.225 FM
Uribyol 2 25 Jul 14:36:18 14:41:22 54° 71° (ENE) 14:46:25 436.500 FM
KITSAT 1 25 Jul 15:02:23 15:08:42 24° 34° (NNE) 15:14:59 435.175 FM
AO-7 25 Jul 15:03:19 15:08:36 19° 48° (NE) 15:13:53 29.400 - 29.500 MHz
SO-50 25 Jul 15:04:21 15:08:47 63° 307° (NW) 15:13:20 436.795 FM
Oscar 19 25 Jul 15:15:20 15:19:57 34° 263° (W) 15:24:37 437.125 CW, 437.150 USB
JAS-1B 25 Jul 15:34:25 15:43:04 86° 73° (ENE) 15:52:56 435.800 - 435.900 CW/SSB
Oscar 16 25 Jul 15:44:28 15:47:57 18° 268° (W) 15:51:27 437.025 USB, Beacon 2401.1428
UOSAT-12 25 Jul 15:47:14 15:51:10 29° 114° (ESE) 15:55:11 437.025 FM, 437.400 FM
TMSAT-1 25 Jul 15:51:54 15:57:11 75° 74° (ENE) 16:02:30 436.925 FM
ITAMSAT 1 25 Jul 15:55:50 16:00:26 31° 264° (W) 16:05:04 435.822 SSB
AO-Echo 25 Jul 16:02:20 16:06:49 28° 266° (W) 16:11:21 ?
Gurwin Techsat 1B 25 Jul 16:13:58 16:19:08 52° 260° (W) 16:24:20 435.225 FM
AO-27 25 Jul 16:14:53 16:18:48 21° 267° (W) 16:22:45 436.795 MHz FM
Uosat F 25 Jul 16:17:16 16:21:41 31° 67° (ENE) 16:26:06 435.120 FM
Uribyol 2 25 Jul 16:17:28 16:21:09 19° 268° (W) 16:24:51 436.500 FM
Saudisat 1A 25 Jul 16:22:09 16:23:11 11° 32° (NNE) 16:24:14 436.775 MHz
RS-15 25 Jul 16:32:31 16:43:24 58° 312° (NW) 16:54:11 29.354 - 29.394 USB, Beacon 29.352 USB
SO-50 25 Jul 16:48:28 16:50:18 12° 327° (NNW) 16:52:09 436.795 FM
AO-7 25 Jul 16:51:43 17:00:02 75° 68° (ENE) 17:08:23 29.400 - 29.500 MHz
OPAL 25 Jul 16:54:42 16:58:30 21° 96° (E) 17:02:19 ?
KITSAT 1 25 Jul 16:57:20 17:05:28 79° 57° (ENE) 17:13:32 435.175 FM
UOSAT-12 25 Jul 17:26:54 17:31:12 37° 312° (NW) 17:35:35 437.025 FM, 437.400 FM
JAS-1B 25 Jul 17:28:14 17:34:46 23° 275° (W) 17:41:55 435.800 - 435.900 CW/SSB
TMSAT-1 25 Jul 17:34:57 17:37:40 14° 271° (W) 17:40:24 436.925 FM
Uosat F 25 Jul 17:55:55 18:00:24 32° 263° (W) 18:04:56 435.120 FM
Hamsat 25 Jul 17:58:58 18:02:05 21° 67° (ENE) 18:05:13 145.90 MHz
Saudisat 1A 25 Jul 17:59:25 18:03:46 55° 53° (NE) 18:08:04 436.775 MHz
JAS-2 25 Jul 18:08:01 18:14:59 37° 65° (ENE) 18:21:36 435.800 - 435.900 CW/SSB, 435.910 FM
OPAL 25 Jul 18:32:46 18:37:37 49° 292° (WNW) 18:42:30 ?
AO-7 25 Jul 18:47:03 18:53:31 25° 267° (W) 19:00:04 29.400 - 29.500 MHz
RS-15 25 Jul 18:50:08 18:58:45 25° 343° (NNW) 19:07:24 29.354 - 29.394 USB, Beacon 29.352 USB
KITSAT 1 25 Jul 18:54:02 18:59:59 23° 257° (WSW) 19:05:55 435.175 FM
STRAND 1 25 Jul 19:12:58 19:15:05 13° 89° (E) 19:17:12 ?
SO-67 25 Jul 19:24:08 19:26:56 23° 70° (ENE) 19:29:46 435.3500 MHz FM
Hamsat 25 Jul 19:34:02 19:37:51 34° 263° (W) 19:41:41 145.90 MHz
Saudisat 1A 25 Jul 19:40:08 19:42:55 17° 250° (WSW) 19:45:41 436.775 MHz
HO-68 25 Jul 19:49:44 19:53:08 14° 49° (NE) 19:56:31 435.675 MHz FM
JAS-2 25 Jul 19:52:09 19:59:44 52° 261° (W) 20:07:02 435.800 - 435.900 CW/SSB, 435.910 FM
STRAND 1 25 Jul 20:49:45 20:54:52 78° 286° (WNW) 20:59:57 ?
SO-67 25 Jul 20:57:22 20:59:58 20° 266° (W) 21:02:36 435.3500 MHz FM
RS-15 25 Jul 21:07:22 21:16:07 26° 19° (NNE) 21:25:00 29.354 - 29.394 USB, Beacon 29.352 USB
UKube-1 25 Jul 21:32:09 21:36:06 34° 69° (ENE) 21:40:04 145.840 MHz, 145.915 MHz
HO-68 25 Jul 21:32:26 21:39:31 66° 69° (ENE) 21:46:37 435.675 MHz FM
SO-50 25 Jul 21:55:19 21:59:01 22° 42° (NE) 22:02:46 436.795 FM
Oscar 11 25 Jul 22:21:00 22:25:11 54° 73° (ENE) 22:29:24 145.825 FM, Beacon 2401.500 USB
MaSat-1 25 Jul 22:21:45 22:24:56 24° 103° (ESE) 22:28:32 437.345 MHz
STRAND 1 25 Jul 22:31:55 22:33:11 11° 304° (WNW) 22:34:28 ?
FUNcube-1 25 Jul 22:33:05 22:36:46 27° 69° (ENE) 22:40:22 145.950 - 145.970 MHz USB
UKube-1 25 Jul 23:08:56 23:12:22 22° 265° (W) 23:15:50 145.840 MHz, 145.915 MHz
RS-15 25 Jul 23:20:25 23:31:19 62° 49° (NE) 23:42:34 29.354 - 29.394 USB, Beacon 29.352 USB
HO-68 25 Jul 23:22:08 23:27:43 24° 267° (W) 23:33:20 435.675 MHz FM
SO-50 25 Jul 23:35:16 23:39:57 59° 240° (WSW) 23:44:41 436.795 FM
Lituanica SAT-1 25 Jul 23:46:06 23:47:30 16° 137° (SE) 23:48:55 437.275 MHz beacon
MaSat-1 25 Jul 23:58:16 00:02:02 34° 306° (NW) 00:06:22 437.345 MHz
Oscar 11 25 Jul 23:59:29 00:01:42 14° 269° (W) 00:03:56 145.825 FM, Beacon 2401.500 USB
FUNcube-1 26 Jul 00:09:22 00:13:06 27° 264° (W) 00:16:47 145.950 - 145.970 MHz USB
UOSAT-12 26 Jul 00:15:39 00:19:58 33° 47° (NE) 00:24:14 437.025 FM, 437.400 FM
Sapphire 26 Jul 01:16:28 01:19:25 15° 104° (ESE) 01:22:22 437.095 MHz 1200 baud AX-25 AFSK
Lituanica SAT-1 26 Jul 01:18:02 01:19:54 27° 333° (NNW) 01:21:45 437.275 MHz beacon
RS-15 26 Jul 01:33:15 01:43:15 42° 251° (WSW) 01:53:38 29.354 - 29.394 USB, Beacon 29.352 USB
PCSat 26 Jul 01:48:08 01:52:50 31° 110° (ESE) 01:57:33 145.825 MHz
ISS 26 Jul 01:53:04 01:56:21 59° 142° (SE) 01:59:41 145.800 FM
UOSAT-12 26 Jul 01:55:52 02:00:06 33° 245° (WSW) 02:04:16 437.025 FM, 437.400 FM
Oscar 16 26 Jul 02:15:13 02:18:46 18° 92° (E) 02:22:17 437.025 USB, Beacon 2401.1428
ITAMSAT 1 26 Jul 02:31:24 02:32:13 10° 88° (E) 02:33:02 435.822 SSB
AO-Echo 26 Jul 02:32:22 02:33:52 11° 87° (E) 02:35:21 ?
